Harlingen, TX

7:26 AM CST on February 24, 2017 (GMT -0600)
Valley International

Weather History for KHRL - October, 2012

Change the Weather History Date:

Monday, October 8, 2012

  Actual Average Record
Temperature  
Mean Temperature 67 °F 78 °F  
Max Temperature 71 °F 88 °F 98 °F (1931)
Min Temperature 62 °F 67 °F 45 °F (2000)
Degree Days  
Heating Degree Days 0 0  
Month to date heating degree days 0 0  
Since 1 July heating degree days 0 0  
Cooling Degree Days 2 13  
Month to date cooling degree days 100 107  
Year to date cooling degree days 4214 3536  
Growing Degree Days 16 (Base 50)    
Moisture  
Dew Point 55 °F    
Average Humidity 65    
Maximum Humidity 73    
Minimum Humidity 56    
Precipitation  
Precipitation T in 0.07 in 1.28 in (1967)
Month to date precipitation 0.24 0.72  
Year to date precipitation 12.96 20.15  
Sea Level Pressure  
Sea Level Pressure 30.11 in    
Wind  
Wind Speed 13 mph (NNW)    
Max Wind Speed 21 mph    
Max Gust Speed 24 mph    
Visibility 10 miles    
Events Rain    
T = Trace of Precipitation, MM = Missing Value Source: NWS Daily Summary

Daily Weather History Graph

Daily Weather History Graph

Search for Another Location

Airport or City:

Trip Planner

Search our weather history database for the weather conditions in past years. The results will help you decide how hot, cold, wet, or windy it might be!

Date:

Astronomy

Oct. 08, 2012 Rise Set
Actual Time 7:26 AM CDT 7:09 PM CDT
Civil Twilight 7:03 AM CDT 7:32 PM CDT
Nautical Twilight 6:36 AM CDT 7:58 PM CDT
Astronomical Twilight 6:09 AM CDT 8:25 PM CDT
Moon 12:44 AM CDT (10/8) 2:24 PM CDT (10/8)
Length of Visible Light 12h 28m
Length of Day
11h 42m
Last Quarter, 46% of the Moon is Illuminated
Oct 8
Last Quarter
Oct 15
New
Oct 21
First Quarter
Oct 29
Full
Nov 6
Last Quarter

Hourly Weather History & Observations

Time (CDT) Temp. Dew Point Humidity Pressure Visibility Wind Dir Wind Speed Gust Speed Precip Events Conditions
12:52 AM 66.0 °F 59.0 °F 78% 30.09 in 10.0 mi North 17.3 mph - 0.00 in Rain Light Rain
1:52 AM 64.9 °F 57.9 °F 78% 30.09 in 10.0 mi NNW 17.3 mph - 0.00 in   Overcast
2:52 AM 64.0 °F 55.9 °F 75% 30.09 in 10.0 mi NNW 17.3 mph - 0.00 in   Overcast
3:52 AM 64.0 °F 55.0 °F 73% 30.08 in 10.0 mi North 17.3 mph - N/A   Overcast
4:52 AM 63.0 °F 54.0 °F 72% 30.08 in 10.0 mi NNW 17.3 mph - N/A   Overcast
5:52 AM 62.1 °F 52.0 °F 70% 30.10 in 10.0 mi NNW 17.3 mph - N/A   Overcast
6:52 AM 62.1 °F 52.0 °F 70% 30.11 in 10.0 mi NNW 16.1 mph - N/A   Overcast
7:52 AM 62.1 °F 52.0 °F 70% 30.13 in 10.0 mi NNW 15.0 mph - N/A   Overcast
8:52 AM 62.1 °F 50.0 °F 65% 30.15 in 10.0 mi NNW 13.8 mph 23.0 mph N/A   Overcast
9:52 AM 63.0 °F 50.0 °F 63% 30.17 in 10.0 mi NNW 17.3 mph - N/A   Overcast
10:52 AM 64.4 °F 48.2 °F 56% 30.17 in 10.0 mi North 17.3 mph - N/A   Overcast
11:52 AM 66.9 °F 50.0 °F 54% 30.17 in 10.0 mi North 16.1 mph - N/A   Overcast
12:52 PM 66.9 °F 51.1 °F 57% 30.16 in 10.0 mi North 16.1 mph - N/A   Overcast
1:52 PM 69.1 °F 54.0 °F 58% 30.13 in 10.0 mi North 15.0 mph - N/A   Overcast
2:52 PM 70.0 °F 54.0 °F 57% 30.10 in 10.0 mi North 15.0 mph - N/A   Overcast
3:52 PM 70.0 °F 55.0 °F 59% 30.09 in 10.0 mi North 11.5 mph - N/A   Overcast
4:52 PM 71.6 °F 55.4 °F 57% 30.07 in 10.0 mi North 11.5 mph - N/A   Overcast
5:52 PM 70.0 °F 57.0 °F 63% 30.07 in 10.0 mi North 10.4 mph - N/A   Overcast
6:52 PM 69.8 °F 59.0 °F 68% 30.07 in 10.0 mi North 10.4 mph - N/A   Overcast
7:52 PM 69.1 °F 59.0 °F 70% 30.08 in 10.0 mi North 8.1 mph - N/A   Overcast
8:52 PM 69.1 °F 59.0 °F 70% 30.09 in 10.0 mi North 9.2 mph - N/A   Overcast
9:52 PM 68.0 °F 59.0 °F 73% 30.08 in 10.0 mi North 6.9 mph - N/A   Overcast
10:52 PM 68.0 °F 57.9 °F 70% 30.08 in 10.0 mi NNW 6.9 mph - N/A   Overcast
11:52 PM 68.0 °F 57.0 °F 68% 30.09 in 10.0 mi WNW 5.8 mph - N/A   Overcast